Location: Banska Bystrica
(0.0000°N, 19.1500°E)
Time: 18:45:00
(UTC+02:00)

Cosmos 2074 Rocket - Pass Details

Date: 19 February 2019
Orbit: 966 x 987 km, 82.9° (Epoch: 15 October)

Event Time Altitude Azimuth Distance (km) Brightness Sun altitude
Rises 18:48:31 0° 10° (N) 3,658 6.8 -12.6°
Reaches altitude 10° 18:51:08 10° 16° (NNE) 2,716 6.1 -13.2°
Maximum altitude 18:57:01 44° 87° (E) 1,320 4.3 -14.7°
Drops below altitude 10° 19:02:56 10° 158° (SSE) 2,738 6.2 -16.1°
Sets 19:05:34 0° 164° (SSE) 3,690 7.0 -16.7°
